Location: Edinburgh
(55.9500°N, 3.1600°W)
Time: 02:41:36
(UTC+01:00)

Vanguard 2 Rocket - All Passes

Search period start: 21 April 2018 00:00
Search period end: 01 May 2018 00:00
Orbit: 553 x 3328 km, 32.9° (Epoch: 20 April)

Date Brightness Start Highest point End Pass type
(mag) Time Alt. Az. Time Alt. Az. Time Alt. Az.
21 Apr - 05:03:34 10° S 05:16:19 23° SSE 05:29:42 10° ESE visible
21 Apr - 07:14:28 10° SW 07:30:32 33° S 07:45:36 10° ESE daylight
21 Apr - 09:29:16 10° WSW 09:45:04 31° SSW 09:58:12 10° SE daylight
21 Apr - 11:47:54 10° WSW 11:58:06 18° SW 12:06:36 10° S daylight
22 Apr - 04:05:53 10° S 04:16:07 18° SE 04:27:14 10° ESE visible
22 Apr - 06:14:36 10° SW 06:29:44 31° SSE 06:45:04 10° ESE daylight
22 Apr - 08:28:05 10° WSW 08:44:24 33° S 08:58:55 10° SE daylight
22 Apr - 10:44:55 10° WSW 10:58:14 23° SSW 11:09:17 10° SSE daylight
23 Apr - 03:10:19 10° SSE 03:16:17 12° SE 03:22:41 10° ESE visible
23 Apr - 05:15:24 10° SSW 05:29:05 27° SSE 05:43:56 10° ESE daylight
23 Apr - 07:27:26 10° SW 07:43:35 34° S 07:59:05 10° SE daylight
23 Apr - 09:42:52 10° WSW 09:58:00 28° SSW 10:10:58 10° SSE daylight
23 Apr - 12:03:40 10° WSW 12:10:37 13° SW 12:16:51 10° SSW daylight
24 Apr - 04:17:00 10° S 04:28:44 23° SSE 04:42:03 10° ESE visible
24 Apr - 06:27:23 10° SW 06:42:43 33° S 06:58:41 10° ESE daylight
24 Apr - 08:41:30 10° WSW 08:57:25 32° SSW 09:11:56 10° SE daylight
24 Apr - 10:59:24 10° WSW 11:10:54 19° SW 11:20:55 10° S daylight
25 Apr - 03:19:41 10° S 03:28:44 17° SE 03:39:07 10° ESE visible
25 Apr - 05:27:54 10° SW 05:41:58 31° SSE 05:57:44 10° ESE daylight
25 Apr - 07:40:43 10° WSW 07:56:37 34° S 08:12:15 10° SE daylight
25 Apr - 09:56:51 10° WSW 10:10:47 24° SSW 10:23:12 10° SSE daylight
26 Apr - 02:25:03 10° SE 02:29:09 11° SE 02:33:34 10° ESE visible
26 Apr - 04:29:04 10° SSW 04:41:29 27° SSE 04:56:09 10° ESE visible
26 Apr - 06:40:30 10° SW 06:55:44 34° S 07:12:01 10° ESE daylight
26 Apr - 08:55:14 10° WSW 09:10:20 29° SSW 09:24:31 10° SSE daylight
26 Apr - 11:15:04 10° WSW 11:23:24 14° SW 11:31:05 10° SSW daylight
27 Apr - 03:31:01 10° S 03:41:21 22° SE 03:53:52 10° ESE visible
27 Apr - 05:40:50 10° SW 05:54:57 33° S 06:11:12 10° ESE daylight
27 Apr - 07:54:17 10° WSW 08:09:37 32° SSW 08:25:06 10° SE daylight
27 Apr - 10:11:25 10° WSW 10:23:27 20° SW 10:34:36 10° S daylight
28 Apr - 02:34:08 10° SSE 02:41:37 16° SE 02:50:27 10° ESE visible
28 Apr - 04:41:44 10° SSW 04:54:22 30° SSE 05:09:49 10° ESE visible
28 Apr - 06:53:56 10° WSW 07:08:47 33° S 07:25:02 10° SE daylight
28 Apr - 09:09:20 10° WSW 09:23:08 25° SSW 09:36:31 10° SSE daylight
29 Apr - 03:43:15 10° SSW 03:54:07 25° SSE 04:07:53 10° ESE visible
29 Apr - 05:54:08 10° SW 06:08:00 33° S 06:24:23 10° ESE daylight
29 Apr - 08:08:09 10° WSW 08:22:34 28° SSW 08:37:28 10° SSE daylight
29 Apr - 10:27:11 10° WSW 10:35:59 15° SW 10:44:29 10° SSW daylight
30 Apr - 02:45:35 10° S 02:54:16 20° SE 03:05:14 10° ESE visible
30 Apr - 04:54:50 10° SW 05:07:23 31° SSE 05:23:11 10° ESE daylight
30 Apr - 07:07:39 10° WSW 07:21:51 31° SSW 07:37:41 10° SE daylight
30 Apr - 09:24:03 10° WSW 09:35:52 20° SW 09:47:36 10° S daylight
